Fort George G Meade, MD

11:46 PM EST on February 25, 2017 (GMT -0500)
Tipton

Weather History for KFME - August, 2013

Change the Weather History Date:

Monday, August 5, 2013

  Actual Average (KBWI) Record (KBWI)
Temperature  
Mean Temperature 66 °F -  
Max Temperature 78 °F 85 °F 104 °F (1930)
Min Temperature 53 °F 67 °F 52 °F (1951)
Growing Degree Days 16 (Base 50)    
Moisture  
Dew Point 55 °F    
Average Humidity 72    
Maximum Humidity 94    
Minimum Humidity 36    
Precipitation  
Precipitation 0.00 in - - ()
Sea Level Pressure  
Sea Level Pressure 30.08 in    
Wind  
Wind Speed 1 mph (West)    
Max Wind Speed 6 mph    
Max Gust Speed -    
Visibility 10 miles    
Events      
Averages and records for this station are not official NWS values.
T = Trace of Precipitation, MM = Missing Value Source: NWS Daily Summary

Daily Weather History Graph

Daily Weather History Graph

Search for Another Location

Airport or City:

Trip Planner

Search our weather history database for the weather conditions in past years. The results will help you decide how hot, cold, wet, or windy it might be!

Date:

Astronomy

Aug. 05, 2013 Rise Set
Actual Time 6:11 AM EDT 8:14 PM EDT
Civil Twilight 5:41 AM EDT 8:43 PM EDT
Nautical Twilight 5:05 AM EDT 9:19 PM EDT
Astronomical Twilight 4:27 AM EDT 9:57 PM EDT
Moon 5:04 AM EDT (8/5) 7:13 PM EDT (8/5)
Length of Visible Light 15h 01m
Length of Day
14h 02m
Waning Crescent, 1% of the Moon is Illuminated
Aug 5
Waning Crescent
Aug 6
New
Aug 14
First Quarter
Aug 20
Full
Aug 28
Last Quarter

Hourly Weather History & Observations

Time (EDT) Temp. Dew Point Humidity Pressure Visibility Wind Dir Wind Speed Gust Speed Precip Events Conditions
12:00 AM 57.2 °F 55.4 °F 94% 30.05 in 10.0 mi Calm Calm - N/A   Clear
12:21 AM 57.2 °F 53.6 °F 88% 30.06 in 10.0 mi Calm Calm - N/A   Clear
12:39 AM 57.2 °F 55.4 °F 94% 30.06 in 10.0 mi Calm Calm - N/A   Clear
1:00 AM 57.2 °F 55.4 °F 94% 30.05 in 10.0 mi NNW 3.5 mph - N/A   Clear
1:21 AM 57.2 °F 55.4 °F 94% 30.05 in 10.0 mi Calm Calm - N/A   Clear
1:42 AM 57.2 °F 55.4 °F 94% 30.06 in 10.0 mi Calm Calm - N/A   Clear
2:00 AM 55.4 °F 53.6 °F 94% 30.05 in 10.0 mi Calm Calm - N/A   Clear
2:21 AM 55.4 °F 53.6 °F 94% 30.05 in 10.0 mi WNW 3.5 mph - N/A   Clear
2:42 AM 55.4 °F 53.6 °F 94% 30.05 in 10.0 mi WNW 3.5 mph - N/A   Clear
3:00 AM 55.4 °F 53.6 °F 94% 30.06 in 10.0 mi NW 3.5 mph - N/A   Clear
3:21 AM 55.4 °F 53.6 °F 94% 30.06 in 10.0 mi Calm Calm - N/A   Clear
3:42 AM 55.4 °F 53.6 °F 94% 30.07 in 10.0 mi WNW 3.5 mph - N/A   Clear
4:00 AM 55.4 °F 53.6 °F 94% 30.07 in 10.0 mi Calm Calm - N/A   Clear
4:21 AM 55.4 °F 53.6 °F 94% 30.07 in 10.0 mi Calm Calm - N/A   Clear
4:42 AM 55.4 °F 53.6 °F 94% 30.07 in 10.0 mi Calm Calm - N/A   Clear
5:00 AM 55.4 °F 53.6 °F 94% 30.07 in 10.0 mi Calm Calm - N/A   Clear
5:21 AM 55.4 °F 53.6 °F 94% 30.08 in 10.0 mi Calm Calm - N/A   Clear
5:42 AM 53.6 °F 51.8 °F 94% 30.09 in 10.0 mi Calm Calm - N/A   Clear
6:00 AM 53.6 °F 51.8 °F 94% 30.09 in 10.0 mi Calm Calm - N/A   Clear
6:21 AM 53.6 °F 51.8 °F 94% 30.10 in 10.0 mi Calm Calm - N/A   Clear
6:42 AM 53.6 °F 51.8 °F 94% 30.10 in 10.0 mi Calm Calm - N/A   Clear
7:00 AM 53.6 °F 51.8 °F 94% 30.11 in 10.0 mi Calm Calm - N/A   Clear
8:00 AM 60.8 °F 55.4 °F 82% 30.12 in 10.0 mi Calm Calm - N/A   Clear
8:21 AM 62.6 °F 59.0 °F 88% 30.13 in 10.0 mi Calm Calm - N/A   Clear
8:42 AM 68.0 °F 55.4 °F 64% 30.13 in 10.0 mi Calm Calm - N/A   Clear
9:00 AM 69.8 °F 55.4 °F 60% 30.12 in 10.0 mi Calm Calm - N/A   Clear
9:21 AM 71.6 °F 53.6 °F 53% 30.13 in 10.0 mi NNE 4.6 mph - N/A   Clear
9:42 AM 71.6 °F 53.6 °F 53% 30.13 in 10.0 mi ENE 3.5 mph - N/A   Clear
10:03 AM 71.6 °F 53.6 °F 53% 30.12 in 10.0 mi NNW 4.6 mph - N/A   Clear
10:21 AM 73.4 °F 53.6 °F 50% 30.12 in 10.0 mi NW 3.5 mph - N/A   Clear
10:42 AM 73.4 °F 53.6 °F 50% 30.12 in 10.0 mi Calm Calm - N/A   Clear
11:03 AM 73.4 °F 51.8 °F 47% 30.13 in 10.0 mi SW 3.5 mph - N/A   Clear
11:21 AM 75.2 °F 51.8 °F 44% 30.13 in 10.0 mi Calm Calm - N/A   Clear
11:42 AM 71.6 °F 55.4 °F 57% 30.13 in 10.0 mi WSW 5.8 mph - N/A   Mostly Cloudy
12:03 PM 77.0 °F 53.6 °F 44% 30.12 in 10.0 mi Calm Calm - N/A   Mostly Cloudy
12:21 PM 77.0 °F 53.6 °F 44% 30.11 in 10.0 mi Calm Calm - N/A   Mostly Cloudy
12:42 PM 73.4 °F 53.6 °F 50% 30.10 in 10.0 mi Calm Calm - N/A   Scattered Clouds
1:03 PM 77.0 °F 51.8 °F 41% 30.10 in 10.0 mi NW 5.8 mph - N/A   Mostly Cloudy
1:42 PM 77.0 °F 51.8 °F 41% 30.08 in 10.0 mi Calm Calm - N/A   Scattered Clouds
2:03 PM 77.0 °F 50.0 °F 39% 30.08 in 10.0 mi West 3.5 mph - N/A   Scattered Clouds
3:03 PM 78.8 °F 51.8 °F 39% 30.06 in 10.0 mi WSW 3.5 mph - N/A   Scattered Clouds
3:21 PM 78.8 °F 50.0 °F 36% 30.05 in 10.0 mi South 4.6 mph - N/A   Clear
3:42 PM 78.8 °F 51.8 °F 39% 30.05 in 10.0 mi WSW 5.8 mph - N/A   Scattered Clouds
4:03 PM 78.8 °F 51.8 °F 39% 30.05 in 10.0 mi WNW 4.6 mph - N/A   Clear
4:21 PM 78.8 °F 51.8 °F 39% 30.04 in 10.0 mi NW 3.5 mph - N/A   Scattered Clouds
4:42 PM 78.8 °F 51.8 °F 39% 30.04 in 10.0 mi NW 4.6 mph - N/A   Mostly Cloudy
5:03 PM 75.2 °F 55.4 °F 50% 30.04 in 10.0 mi Calm Calm - N/A   Scattered Clouds
5:21 PM 77.0 °F 51.8 °F 41% 30.04 in 10.0 mi Calm Calm - N/A   Scattered Clouds
5:42 PM 75.2 °F 53.6 °F 47% 30.05 in 10.0 mi South 4.6 mph - N/A   Scattered Clouds
6:03 PM 77.0 °F 57.2 °F 50% 30.05 in 10.0 mi South 3.5 mph - N/A   Mostly Cloudy
6:21 PM 75.2 °F 59.0 °F 57% 30.05 in 10.0 mi South 3.5 mph - N/A   Scattered Clouds
6:42 PM 73.4 °F 60.8 °F 65% 30.06 in 10.0 mi Calm Calm - N/A   Scattered Clouds
7:03 PM 71.6 °F 62.6 °F 73% 30.06 in 10.0 mi Calm Calm - N/A   Scattered Clouds
7:24 PM 71.6 °F 60.8 °F 69% 30.06 in 10.0 mi Calm Calm - N/A   Scattered Clouds
7:42 PM 69.8 °F 60.8 °F 73% 30.07 in 10.0 mi Calm Calm - N/A   Clear
8:03 PM 68.0 °F 60.8 °F 78% 30.07 in 10.0 mi SSE 3.5 mph - N/A   Clear
8:24 PM 66.2 °F 60.8 °F 83% 30.07 in 10.0 mi Calm Calm - N/A   Clear
8:42 PM 64.4 °F 60.8 °F 88% 30.06 in 10.0 mi Calm Calm - N/A   Clear
9:03 PM 64.4 °F 60.8 °F 88% 30.07 in 10.0 mi Calm Calm - N/A   Clear
9:24 PM 64.4 °F 60.8 °F 88% 30.07 in 10.0 mi Calm Calm - N/A   Clear
9:42 PM 64.4 °F 60.8 °F 88% 30.07 in 10.0 mi Calm Calm - N/A   Clear
10:03 PM 64.4 °F 60.8 °F 88% 30.06 in 10.0 mi Calm Calm - N/A   Clear
10:24 PM 62.6 °F 59.0 °F 88% 30.05 in 10.0 mi Calm Calm - N/A   Clear
10:42 PM 62.6 °F 60.8 °F 94% 30.06 in 10.0 mi Calm Calm - N/A   Clear
11:03 PM 62.6 °F 60.8 °F 94% 30.06 in 10.0 mi Calm Calm - N/A   Clear
11:24 PM 62.6 °F 60.8 °F 94% 30.06 in 10.0 mi Calm Calm - N/A   Clear
11:42 PM 62.6 °F 59.0 °F 88% 30.06 in 10.0 mi Calm Calm - N/A   Clear